Tracking 30289 objects as of 29-Apr-2025
HD Live streaming from Space Station
objects crossing your sky now

STARLINK-11631

Track STARLINK-11631 now!
10-day predictions
STARLINK-11631 is classified as:


NORAD ID: 63195
Int'l Code: 2025-048N
Perigee: 342.6 km
Apogee: 344.8 km
Inclination: 43.0 °
Period: 91.3 minutes
Semi major axis: 6714 km
RCS: Unknown
Launch date: March 13, 2025
Source: United States (US)
Launch site: AIR FORCE EASTERN TEST RANGE (AFETR)
Your satellite tracking list
Your tracking list is empty




NASA's NSSDC Master Catalog

Two Line Element Set (TLE):
1 63195U 25048N   25118.83277966 -.00000248  00000-0  14395-5 0  9990
2 63195  42.9981  59.4274 0001640 281.6009  78.4677 15.77849798  8986
Source of the keplerian elements: AFSPC